TimePST,TemperatureF,Dew PointF,Humidity,Sea Level PressureIn,VisibilityMPH,Wind Direction,Wind SpeedMPH,Gust SpeedMPH,PrecipitationIn,Events,Conditions,WindDirDegrees,DateUTC
12:55 AM,33.1,30.0,89,29.93,10.0,Calm,Calm,-,N/A,,Scattered Clouds,0,2013-02-07 08:55:00
1:55 AM,35.1,30.9,85,29.91,10.0,NNW,3.5,-,N/A,,Mostly Cloudy,340,2013-02-07 09:55:00
2:55 AM,34.0,30.9,89,29.89,10.0,Calm,Calm,-,N/A,,Scattered Clouds,0,2013-02-07 10:55:00
3:55 AM,34.0,30.9,89,29.88,10.0,NE,3.5,-,N/A,,Mostly Cloudy,50,2013-02-07 11:55:00
4:55 AM,33.1,30.0,89,29.89,10.0,Calm,Calm,-,N/A,,Clear,0,2013-02-07 12:55:00
5:55 AM,32.0,30.0,92,29.90,9.0,Calm,Calm,-,N/A,,Mostly Cloudy,0,2013-02-07 13:55:00
6:55 AM,32.0,28.9,88,29.92,9.0,Calm,Calm,-,N/A,,Mostly Cloudy,0,2013-02-07 14:55:00
7:55 AM,30.9,28.9,92,29.94,4.0,WSW,4.6,-,N/A,,Clear,250,2013-02-07 15:55:00
8:55 AM,35.1,30.9,85,29.94,10.0,Calm,Calm,-,N/A,,Clear,0,2013-02-07 16:55:00
9:55 AM,37.9,33.1,83,29.95,10.0,Calm,Calm,-,N/A,,Clear,0,2013-02-07 17:55:00
10:55 AM,41.0,34.0,76,29.96,10.0,Calm,Calm,-,N/A,,Clear,0,2013-02-07 18:55:00
11:55 AM,43.0,32.0,65,29.95,10.0,SSE,5.8,-,N/A,,Clear,160,2013-02-07 19:55:00
12:55 PM,46.0,30.0,54,29.93,10.0,Variable,3.5,-,N/A,,Clear,0,2013-02-07 20:55:00
1:55 PM,46.9,23.0,39,29.93,10.0,NNW,9.2,-,N/A,,Clear,330,2013-02-07 21:55:00
2:55 PM,46.9,24.1,41,29.94,10.0,NW,10.4,31.1,N/A,,Clear,310,2013-02-07 22:55:00
3:55 PM,46.0,23.0,40,29.95,10.0,West,10.4,-,N/A,,Clear,280,2013-02-07 23:55:00
4:55 PM,44.1,21.9,42,29.97,10.0,WNW,8.1,-,N/A,,Clear,290,2013-02-08 00:55:00
5:55 PM,39.9,21.9,49,29.99,10.0,WNW,3.5,-,N/A,,Clear,300,2013-02-08 01:55:00
6:55 PM,37.9,24.1,57,30.01,10.0,West,4.6,-,N/A,,Scattered Clouds,280,2013-02-08 02:55:00
7:55 PM,37.9,25.0,60,30.04,10.0,WNW,5.8,-,N/A,,Scattered Clouds,300,2013-02-08 03:55:00
8:55 PM,36.0,24.1,62,30.06,10.0,NW,4.6,-,N/A,,Scattered Clouds,320,2013-02-08 04:55:00
9:55 PM,37.0,24.1,59,30.07,10.0,NW,6.9,-,N/A,,Overcast,320,2013-02-08 05:55:00
10:55 PM,36.0,24.1,62,30.08,10.0,NW,5.8,-,N/A,,Clear,320,2013-02-08 06:55:00
11:55 PM,36.0,24.1,62,30.09,10.0,NW,8.1,-,N/A,,Clear,320,2013-02-08 07:55:00